Wind_Speed
13 13 13 13 13 12 11 10 9 9 9 9 9 9 9 10 10 11 11 13 14 14 15 17 18 18 19 19 19 19 20 21 20 21 21 21 21 22 22 22 21 21 21 21 21 21 21 21 21 20 18 17 15 14 14 14 14 13 14 15 16 17 18 18 19 20 21 21 20 20 20 23 23 20 19 18 18 20 22 22 22 23 24 24 26 27 28 29
14 14 15 15 14 14 13 12 11 10 9 9 9 9 9 10 10 10 11 11 13 14 15 16 17 18 19 19 19 19 20 20 20 20 20 20 20 21 21 21 22 21 21 22 21 21 21 22 23 23 22 21 19 17 15 14 14 14 14 15 16 16 17 17 18 19 20 21 21 21 20 22 23 21 19 19 18 20 22 22 23 23 24 25 27 28 30 30
15 16 16 16 16 15 15 14 13 12 11 10 10 9 9 9 9 10 10 10 12 13 14 15 17 18 19 19 20 20 20 20 19 20 20 19 20 20 21 21 22 22 23 23 23 23 22 21 22 23 23 22 21 20 17 15 15 15 15 16 16 17 16 16 17 19 21 22 22 21 21 22 23 22 20 19 19 21 22 23 23 23 24 25 27 29 31 31
17 17 17 17 17 17 16 16 15 14 12 11 11 10 10 9 9 9 10 10 11 12 14 15 16 18 19 19 20 20 21 20 19 19 19 19 19 20 21 21 22 22 23 23 23 23 22 22 22 22 22 22 22 22 19 17 17 16 16 17 17 17 17 17 18 19 20 22 22 22 21 21 22 23 22 20 20 22 23 23 23 24 25 26 28 29 30 31
19 19 19 19 19 19 18 17 17 15 14 13 12 11 10 10 10 10 9 10 10 11 13 14 15 17 18 19 20 21 22 20 19 19 18 18 19 19 20 20 21 22 22 23 23 22 22 23 24 24 23 23 22 22 20 19 18 17 17 17 17 18 19 19 20 20 21 22 22 22 21 22 23 24 24 22 22 23 23 23 24 25 26 27 28 29 30 31
20 20 20 20 20 20 19 19 18 17 16 14 13 13 12 11 10 10 10 10 10 11 12 14 15 16 17 18 19 21 21 20 19 18 18 19 19 19 20 20 21 22 22 23 23 23 22 23 24 24 25 24 22 21 20 18 18 18 18 18 18 19 20 21 21 22 24 24 24 24 23 23 24 25 25 23 23 24 24 24 25 26 27 28 29 30 31 32
22 22 22 22 22 21 21 20 19 18 17 16 15 14 13 12 11 11 10 10 11 11 12 13 14 15 16 17 18 20 21 20 19 19 19 19 19 20 20 20 21 22 22 23 23 23 22 23 23 24 24 24 22 20 19 18 18 18 18 19 19 20 22 22 23 24 26 27 27 27 26 26 26 27 26 25 24 25 24 24 24 26 27 28 30 32 32 33
23 23 23 23 23 22 22 21 20 19 18 17 17 16 14 13 13 12 12 11 11 12 12 13 14 14 15 16 17 18 20 20 20 20 20 20 20 20 20 20 21 21 22 23 23 22 21 22 23 24 24 23 22 21 20 19 19 19 19 20 21 22 23 24 24 24 26 27 28 28 27 27 27 27 26 25 25 24 24 23 24 26 28 30 32 33 34 35
24 24 24 24 24 23 23 22 21 20 19 18 18 17 16 15 14 14 13 13 12 12 12 13 14 14 15 16 17 17 19 20 20 21 21 21 21 21 20 20 21 21 22 23 22 21 21 21 23 23 24 24 23 23 22 22 21 21 21 21 22 23 24 25 25 25 26 28 29 28 27 27 26 26 25 24 24 23 23 24 26 28 30 32 33 34 35 36
25 25 25 25 25 24 24 23 22 21 21 20 19 18 18 16 16 15 15 14 14 14 14 14 14 15 15 16 17 17 18 19 19 21 22 22 22 21 21 21 21 22 22 23 23 22 21 22 22 23 24 24 24 24 24 24 23 23 23 23 22 23 24 25 26 27 28 29 31 30 29 28 28 28 27 26 25 25 26 27 29 30 31 33 34 35 36 38
26 26 26 26 26 26 25 24 23 22 22 21 20 19 19 18 17 17 16 16 16 15 15 15 15 16 15 16 17 17 18 18 19 21 21 22 22 22 21 21 22 22 23 24 23 23 22 22 22 22 23 24 24 24 25 25 25 25 25 25 24 24 24 24 25 27 28 30 32 32 32 30 30 31 31 30 29 28 29 29 30 32 33 34 35 36 38 38
27 27 27 27 27 26 26 25 24 24 23 23 22 21 20 20 19 18 18 18 18 17 17 17 17 17 17 17 18 18 19 18 19 20 21 21 22 22 22 21 22 22 24 25 24 24 23 23 23 22 23 24 24 25 26 26 26 27 27 27 27 27 27 27 26 27 28 30 31 33 31 29 31 32 33 33 32 32 32 32 33 34 34 34 35 35 36 37
28 28 28 28 28 27 27 26 26 25 24 24 23 22 22 22 21 21 20 20 20 19 19 19 18 18 18 18 19 20 20 19 20 20 21 22 22 22 22 22 23 23 24 25 25 25 25 24 24 23 24 25 25 26 26 27 27 28 28 29 29 29 29 29 29 29 29 30 31 33 31 28 30 32 33 33 32 32 32 31 32 32 32 32 32 33 34 36
29 29 29 29 29 28 28 27 27 26 25 25 25 24 24 24 23 23 22 22 22 21 21 20 20 20 20 20 21 22 21 22 21 21 21 22 23 23 22 23 24 23 24 25 25 26 26 26 25 25 25 25 26 27 27 28 28 29 30 31 31 31 31 31 31 30 31 31 32 34 33 29 31 32 32 31 30 30 30 30 31 31 31 31 31 32 34 36
30 30 30 30 30 30 29 29 28 28 27 26 26 26 25 26 26 25 25 24 24 24 23 22 22 22 21 21 22 22 23 23 22 22 23 23 24 24 23 24 24 24 25 26 26 26 27 27 27 26 26 26 27 27 28 29 30 31 31 32 33 33 33 33 33 32 31 32 32 34 34 30 31 32 31 31 30 30 31 31 32 32 32 32 33 35 36 38
31 31 31 31 31 31 31 30 30 29 29 28 27 27 27 27 27 27 27 26 26 25 25 24 24 23 23 23 24 24 25 24 23 24 24 25 26 26 25 26 26 26 26 26 26 26 27 28 28 28 28 28 28 29 29 29 30 32 33 33 34 34 34 35 35 34 33 33 33 35 35 32 32 32 32 32 31 31 32 33 33 33 33 34 36 38 39 40
33 32 32 32 32 32 32 32 32 31 30 29 29 29 29 29 29 29 29 28 28 27 27 26 26 25 24 25 25 26 27 26 25 25 25 26 27 27 27 27 28 28 28 28 27 27 28 29 29 29 29 29 30 30 31 31 31 32 33 34 35 35 36 36 36 37 37 36 36 37 38 36 35 36 35 34 33 33 34 35 35 35 36 37 39 40 41 42
34 34 34 34 34 34 34 34 33 32 31 31 30 31 31 31 31 31 30 30 30 29 29 28 28 27 26 26 27 28 28 27 27 27 26 27 28 28 29 29 30 30 30 30 29 28 29 30 31 31 31 31 31 32 33 33 33 33 34 34 35 35 35 37 38 38 39 39 38 40 40 39 39 40 39 38 36 36 37 38 38 38 39 40 41 41 43 44
35 36 36 35 35 35 35 35 35 34 32 32 32 32 33 33 32 32 32 31 31 31 31 30 30 29 28 28 28 29 30 29 28 28 28 29 29 29 30 31 31 32 32 31 30 30 30 31 31 31 32 32 32 33 34 34 35 35 35 35 36 36 35 37 40 40 40 40 39 41 43 40 40 41 41 40 39 39 39 40 40 40 41 43 43 44 45 45
35 36 37 37 37 36 36 36 36 35 34 33 33 34 34 34 34 33 33 33 33 33 32 32 31 31 30 29 30 31 30 30 29 29 29 29 30 31 32 32 33 33 33 32 32 32 31 32 32 32 33 33 33 34 34 35 36 36 37 36 37 39 37 38 41 42 42 41 40 42 44 41 40 40 41 40 40 40 41 42 42 43 44 45 45 45 44 44
35 37 38 38 38 38 38 38 38 37 36 35 35 35 35 35 35 35 34 33 34 34 34 34 34 33 32 32 32 32 31 30 30 30 30 30 31 32 33 34 34 34 34 34 33 33 33 34 34 34 34 34 34 35 35 36 36 37 38 38 38 39 39 39 42 43 44 43 42 44 45 43 40 40 41 41 41 41 42 43 44 45 46 45 43 42 41 43
36 37 38 39 40 40 40 39 39 39 39 38 37 37 37 37 37 38 37 34 34 35 35 35 36 35 34 33 33 33 32 31 31 31 32 32 33 34 34 35 35 35 35 34 35 34 34 36 36 35 36 35 35 36 37 37 37 38 39 40 39 40 41 40 42 44 45 45 45 45 47 45 43 42 42 43 44 44 44 45 45 45 44 42 40 39 41 44
37 37 38 39 40 42 42 42 41 41 41 40 40 40 40 40 40 40 40 38 36 35 35 35 36 35 34 34 34 34 33 32 32 32 33 33 33 34 35 36 36 36 36 35 35 35 35 37 37 36 37 37 36 37 39 39 38 39 40 42 41 41 43 43 44 46 46 47 47 47 48 48 46 44 43 45 46 45 45 46 45 43 42 41 40 41 44 47
39 38 38 39 40 42 42 43 43 43 43 43 42 42 43 43 43 43 43 43 40 37 37 37 36 35 35 35 35 35 34 33 33 33 34 34 34 36 37 38 37 37 38 37 37 35 36 39 39 38 38 38 38 39 41 41 40 39 41 43 43 42 43 45 46 48 49 49 50 49 50 50 48 43 42 44 45 44 44 44 44 43 43 43 43 44 47 49
40 40 40 40 41 42 42 43 43 44 45 45 45 45 45 46 46 46 46 47 45 40 39 40 38 36 36 36 36 36 35 34 34 35 35 36 36 38 39 39 39 39 40 39 38 36 36 39 40 39 39 39 40 41 42 44 43 41 41 43 44 44 44 45 47 50 51 52 51 50 51 54 51 44 42 43 43 43 44 44 44 45 45 46 46 47 49 51
43 43 42 41 41 42 43 43 44 45 46 46 46 47 48 48 49 49 49 52 50 43 42 42 40 38 38 37 37 37 37 36 36 37 38 38 39 40 40 40 41 42 42 41 40 37 38 40 40 40 40 40 42 43 44 46 46 44 43 44 45 45 46 46 47 50 52 54 52 49 52 58 55 48 44 43 43 44 44 45 46 48 48 48 49 49 50 52
46 46 45 44 43 44 45 45 45 46 47 47 48 48 49 50 51 51 52 55 55 48 44 44 42 40 40 38 38 39 39 38 39 40 40 41 41 42 42 42 43 44 43 43 42 39 40 41 41 41 41 41 43 45 45 46 47 47 46 46 47 47 48 47 49 50 52 55 52 48 52 59 58 52 46 43 44 44 44 46 48 49 50 50 50 51 52 55
48 49 48 47 47 47 47 47 47 48 48 49 49 50 51 51 52 53 54 58 59 52 47 45 43 42 42 41 42 42 42 41 41 42 42 42 43 43 44 44 45 45 44 45 44 41 42 43 42 42 42 42 44 46 47 47 48 48 48 49 49 49 49 49 51 51 53 57 53 48 53 59 59 54 47 44 45 46 45 47 49 49 50 51 51 53 55 57
48 50 50 50 49 50 50 51 50 50 50 50 51 51 52 53 54 54 56 60 60 54 49 47 46 45 45 45 45 45 44 44 43 44 43 44 45 45 45 45 46 46 46 46 45 43 44 44 43 43 43 43 46 47 48 48 49 49 49 50 51 52 51 52 53 53 55 58 54 51 55 60 60 53 48 48 49 48 47 49 51 51 52 53 54 56 57 58
48 49 50 50 50 51 52 53 53 53 52 52 53 53 54 55 56 57 60 61 59 56 53 50 48 48 48 48 48 48 47 45 45 45 45 46 47 47 46 46 47 47 47 46 45 45 45 45 44 44 44 45 47 48 49 50 51 50 50 51 53 54 53 54 55 55 57 58 55 55 58 62 62 54 52 54 52 50 50 52 54 54 55 56 56 57 58 58
49 50 50 51 51 51 52 54 54 54 54 55 55 56 57 58 59 61 63 60 57 57 55 52 51 51 50 50 50 49 48 48 47 47 47 48 48 48 47 47 48 48 47 46 45 46 46 46 46 45 45 46 48 49 50 51 51 51 52 53 55 56 56 57 57 57 60 60 58 59 61 64 64 59 59 60 56 53 53 54 56 57 57 57 57 58 59 60
51 51 51 51 51 52 53 54 54 54 55 55 56 57 58 61 64 64 61 57 57 58 56 54 54 53 53 53 52 51 51 50 49 49 49 49 49 49 48 47 48 49 49 46 45 46 47 47 47 46 46 47 49 50 52 52 52 52 52 54 56 58 58 59 60 60 62 62 61 63 64 64 65 64 64 63 60 57 55 56 58 58 58 57 58 60 60 61
53 53 53 53 53 53 54 54 55 55 56 56 57 58 60 64 67 63 58 56 57 58 57 57 57 56 57 57 55 54 53 52 51 50 50 50 50 50 49 47 46 47 49 48 48 48 48 48 47 47 47 48 50 51 53 53 53 53 53 55 56 58 60 61 62 63 64 63 63 66 67 66 65 65 65 65 62 57 55 57 58 58 57 58 60 61 61 63
56 56 56 56 55 56 56 56 57 57 57 58 59 60 64 68 67 61 58 56 56 58 58 59 59 59 59 58 57 56 54 54 53 52 51 52 52 51 50 47 45 46 48 49 50 50 52 52 49 48 49 49 51 52 53 54 54 54 54 56 56 57 60 63 64 65 67 66 63 65 68 68 67 68 67 64 60 55 54 57 57 56 57 60 62 62 62 64
60 59 59 59 58 58 57 58 59 60 60 61 62 65 69 69 65 61 59 57 57 57 58 59 60 61 61 60 58 57 56 55 55 54 54 54 53 53 51 47 46 47 47 48 50 51 54 54 52 52 51 51 53 54 55 55 56 56 57 58 58 59 61 64 66 67 69 69 63 63 67 68 69 71 68 61 57 55 56 57 55 56 60 62 63 63 64 65
62 62 62 62 61 60 60 61 62 62 63 63 65 70 71 68 65 63 61 59 58 58 58 60 62 62 63 62 61 59 58 57 57 57 57 56 56 55 52 49 48 48 48 49 50 51 55 56 55 55 54 54 55 56 57 57 57 58 59 59 60 61 63 65 67 68 71 72 66 64 68 68 68 69 65 60 57 56 56 56 55 58 62 64 64 64 65 65
63 63 64 64 62 62 63 64 64 64 65 67 71 73 72 69 66 64 62 61 60 59 60 62 64 64 64 64 64 62 60 60 59 59 59 58 59 58 53 50 50 50 50 50 51 53 55 57 57 57 57 57 57 58 59 58 59 61 61 60 61 63 64 66 68 69 71 75 71 67 69 69 67 66 62 60 59 57 57 57 58 62 64 64 65 66 66 65
64 64 65 64 64 64 64 65 66 66 68 71 75 76 73 71 68 64 61 60 61 62 63 64 65 65 65 65 65 64 63 62 61 61 60 60 61 60 56 53 53 53 52 53 53 54 55 57 58 59 59 59 60 60 60 60 62 63 61 61 63 64 65 66 69 69 71 76 75 71 70 66 64 64 62 60 59 58 58 58 61 64 65 65 66 67 67 65
66 66 66 65 65 65 65 67 67 68 71 76 77 76 75 73 69 65 61 61 62 64 65 66 65 66 67 67 66 66 65 64 63 62 62 62 63 61 58 57 57 57 56 55 55 56 56 58 60 61 62 63 62 62 61 62 64 63 62 63 64 65 66 67 69 70 71 76 77 77 74 64 60 62 61 59 60 59 59 60 62 64 65 66 67 67 66 63
69 69 69 67 67 68 67 68 69 71 75 77 77 77 76 74 70 67 64 63 63 65 66 67 67 67 67 67 67 67 66 65 64 64 64 64 65 63 60 59 59 59 59 58 58 58 59 60 62 64 65 65 64 63 63 63 64 63 63 65 65 66 67 68 70 71 71 74 78 81 78 66 61 62 59 59 60 59 58 60 63 64 65 66 67 67 64 60
73 73 71 70 70 70 70 71 72 74 77 78 77 77 76 73 71 69 67 65 65 66 66 67 67 68 67 67 67 66 66 66 66 66 66 66 64 63 61 61 61 61 60 60 60 60 61 63 65 66 66 66 65 65 66 65 64 64 64 65 66 66 67 69 72 73 73 75 77 81 81 70 62 61 60 62 61 58 58 61 63 65 66 67 67 65 61 58
75 75 73 72 73 74 74 75 74 76 78 78 77 75 74 73 73 71 68 67 66 66 67 67 67 68 67 67 66 66 67 67 67 67 67 64 63 62 62 61 62 61 61 61 62 62 64 66 68 68 67 67 67 67 68 67 66 65 66 66 66 66 67 70 73 75 76 79 79 82 82 71 61 61 64 65 62 58 59 61 63 65 66 66 65 61 58 56
76 75 74 74 76 77 78 78 77 78 79 77 75 74 73 74 73 71 69 69 68 67 68 68 67 67 67 67 67 67 68 69 67 66 66 63 62 62 62 62 62 62 62 63 64 64 66 67 69 69 69 69 69 69 69 67 66 66 67 67 66 67 68 71 74 77 78 80 81 83 81 69 61 64 67 66 62 59 60 62 64 65 65 63 60 57 54 53
77 76 76 76 78 80 81 80 79 79 78 77 77 76 75 75 73 72 71 71 70 70 70 70 69 69 68 68 69 69 70 70 68 66 65 64 63 63 63 63 62 63 64 64 65 66 67 69 70 71 71 70 70 70 69 67 67 68 68 67 67 68 70 73 76 79 80 78 76 80 79 68 61 66 68 65 61 59 61 64 65 65 63 59 55 53 51 51
81 80 79 79 81 82 83 81 79 80 79 79 79 78 76 76 74 73 73 73 73 73 73 72 71 70 70 70 72 71 70 70 69 67 66 66 65 64 63 63 64 64 65 66 66 67 69 69 70 72 72 71 71 70 69 68 69 70 69 68 69 70 72 75 77 79 78 73 70 74 75 66 61 66 67 63 60 61 62 64 64 62 58 54 51 50 50 50
84 85 85 85 87 87 86 83 81 82 80 80 81 79 77 77 74 73 74 75 76 76 75 74 73 72 73 72 72 71 69 68 68 68 66 66 65 64 64 65 65 66 67 67 68 70 71 71 70 72 73 73 72 70 69 69 69 70 69 69 71 72 74 76 75 75 72 67 66 69 68 65 63 64 64 61 60 61 62 64 63 58 52 50 49 49 49 50
81 81 81 84 87 88 87 87 87 86 83 81 81 79 77 77 76 76 78 78 77 77 76 75 75 74 73 72 71 70 68 67 68 67 66 65 65 65 65 65 66 67 68 70 71 71 72 72 71 72 74 73 72 70 70 70 69 70 70 71 72 73 73 72 71 69 63 61 68 66 61 64 65 63 62 60 58 60 63 62 58 51 48 48 49 49 50 52
80 78 76 78 82 84 83 84 86 87 84 82 82 81 80 81 81 81 81 80 78 78 78 78 77 75 73 71 72 70 67 67 69 67 66 66 66 67 67 66 68 70 70 71 71 71 73 73 71 72 74 74 73 72 71 71 71 71 69 68 70 71 69 67 66 63 56 60 69 65 58 64 67 62 60 59 58 61 62 57 51 46 46 48 49 50 52 54
81 79 78 80 82 83 82 81 83 86 86 86 86 85 83 83 83 83 83 82 81 80 79 79 77 74 73 72 72 71 69 70 70 68 67 68 68 69 69 69 71 72 72 71 71 72 74 74 73 74 76 76 74 73 71 70 71 69 64 63 66 66 64 63 60 56 55 62 67 63 62 66 64 58 57 58 59 60 57 50 46 45 47 49 50 52 54 56
81 80 79 80 81 81 82 82 83 83 83 85 87 85 82 82 83 84 86 85 84 82 81 81 78 75 74 74 75 75 74 73 73 70 69 71 72 72 73 74 74 74 73 72 72 73 76 76 74 74 76 73 69 67 67 66 66 65 62 61 61 59 59 59 56 53 56 62 63 62 68 69 59 52 55 58 57 55 50 45 45 47 50 51 52 54 55 57
82 82 82 83 83 82 83 83 83 82 82 83 83 80 79 81 79 81 86 86 84 83 83 83 80 78 77 78 78 79 77 76 75 73 73 75 75 75 76 77 77 76 76 76 76 76 76 74 69 68 71 66 58 59 62 61 64 66 63 60 57 56 58 57 54 54 58 61 63 65 68 65 57 53 55 54 50 47 44 44 47 50 52 53 53 55 56 58
82 86 86 88 89 88 87 87 88 89 87 85 83 80 78 79 77 80 85 86 84 83 83 83 81 82 84 84 81 80 79 78 78 78 78 79 79 79 80 81 80 79 77 77 75 72 70 67 62 62 66 61 55 58 61 62 68 67 59 55 55 56 57 56 55 57 60 62 64 64 63 60 55 52 51 47 44 42 42 45 49 52 53 53 53 55 57 59
Wind_Direction
242 247 252 255 259 263 266 273 282 291 300 309 316 323 329 335 342 350 356 359 2 5 7 7 7 7 8 9 10 10 10 12 16 19 21 22 25 25 25 24 22 20 19 18 17 14 10 6 1 358 355 350 345 341 334 323 315 308 300 295 295 294 292 292 292 291 290 289 289 290 290 290 292 299 304 306 309 305 300 302 304 307 309 308 307 306 305 305
240 244 248 252 255 258 262 267 274 282 291 300 308 316 322 328 334 342 350 355 357 1 3 4 5 5 5 5 6 7 7 9 11 13 15 16 18 19 19 19 17 15 13 13 12 10 8 5 360 355 353 349 344 343 339 329 323 317 308 304 302 299 296 295 295 293 292 291 290 291 292 292 295 300 303 304 307 304 301 304 305 305 305 304 305 304 303 304
239 241 245 249 252 254 258 261 267 274 282 290 298 306 312 318 325 334 342 348 353 356 359 0 1 3 3 3 3 3 4 5 6 9 10 10 11 12 13 14 13 10 8 7 6 5 4 4 1 356 352 347 342 341 340 333 329 325 316 313 309 304 302 300 299 296 294 293 294 295 297 299 301 304 304 306 308 307 306 307 305 303 303 304 303 302 302 304
237 239 242 246 249 252 254 257 262 267 273 281 288 295 302 308 315 323 332 339 346 350 353 356 358 360 1 1 0 0 360 0 2 5 5 5 6 7 8 9 9 7 5 3 1 0 0 359 358 356 353 348 342 341 341 337 334 329 322 319 314 310 308 305 303 300 297 297 298 300 303 303 304 304 305 308 311 310 308 306 304 303 303 303 302 302 303 305
236 237 239 242 246 249 252 255 258 263 267 273 280 286 292 298 304 312 321 329 336 343 347 350 354 356 358 358 358 357 357 357 359 0 360 0 1 2 3 4 4 3 2 360 358 358 357 356 355 354 352 349 344 342 342 339 337 332 325 322 317 314 312 310 307 304 301 300 301 303 304 303 302 302 305 311 312 309 306 305 305 304 303 303 303 303 304 305
235 236 238 240 243 247 250 253 256 260 264 268 273 278 284 288 295 302 310 318 325 333 339 343 347 351 353 354 354 354 355 355 356 356 355 355 356 357 359 359 359 359 358 357 356 356 355 354 352 351 350 348 345 344 343 341 339 336 330 326 321 317 315 313 311 308 306 305 304 304 304 302 301 301 305 309 307 305 304 306 306 304 304 305 305 304 305 306
234 235 236 239 242 245 248 251 254 257 261 265 268 272 277 281 286 292 299 306 314 322 329 333 340 344 346 348 350 350 352 353 353 352 350 350 350 352 355 355 355 355 354 354 354 353 352 349 347 347 347 345 343 342 342 343 342 340 336 332 328 324 320 319 316 314 311 309 308 306 304 302 301 302 304 305 303 302 303 305 304 303 304 305 305 306 307 308
234 234 235 238 240 243 246 249 252 255 259 263 266 269 271 275 281 285 291 296 303 311 318 323 330 336 339 340 344 346 348 349 349 347 346 346 346 348 350 351 351 351 352 352 351 350 348 345 343 343 343 341 340 338 338 341 343 343 341 337 333 329 326 323 321 318 315 311 309 307 305 304 304 304 304 303 301 301 303 303 302 302 303 304 305 307 307 308
235 235 235 237 239 242 245 247 250 253 256 259 264 267 268 271 275 279 285 289 295 301 307 313 319 326 330 332 336 341 344 344 344 343 342 342 343 344 347 347 347 348 348 348 347 344 342 340 340 339 338 338 336 334 334 337 340 342 341 338 333 329 326 324 323 320 316 312 309 308 308 308 307 306 304 302 302 303 303 302 301 302 303 304 305 306 306 306
235 235 236 236 239 242 244 246 249 251 254 256 259 264 267 269 271 275 280 284 288 293 298 303 309 316 321 323 328 333 337 338 339 339 338 338 339 340 342 343 344 344 344 344 343 340 337 336 336 334 333 333 333 331 331 332 335 338 338 336 332 326 323 321 319 316 314 311 309 309 309 309 309 306 304 302 301 301 301 300 300 302 303 304 305 304 304 304
234 236 237 237 239 241 243 246 248 249 252 254 256 260 264 267 269 272 274 279 282 286 291 295 300 306 310 315 319 323 328 330 333 334 334 334 335 336 338 339 339 339 339 340 338 336 333 331 330 329 327 328 328 328 328 327 329 330 331 332 331 328 324 321 317 314 312 309 308 308 308 310 308 305 303 301 301 301 301 301 301 301 302 303 303 302 303 304
235 237 238 239 240 241 244 245 247 249 251 253 254 256 261 264 266 269 271 274 277 280 284 288 293 298 302 306 309 314 320 323 326 328 329 329 329 331 332 334 334 335 336 336 334 331 329 326 325 324 323 323 324 324 325 325 324 324 325 327 328 327 325 322 319 316 312 309 309 307 308 309 306 303 302 301 303 304 304 304 302 301 302 302 301 302 303 304
236 238 240 242 242 243 245 246 247 249 250 252 254 255 258 261 264 266 269 271 274 276 279 283 287 291 296 299 302 308 313 316 319 322 323 324 324 325 327 329 329 330 332 332 329 327 325 323 322 321 320 319 319 321 322 321 320 320 321 322 322 322 320 320 319 318 315 314 313 310 310 313 308 305 304 304 306 306 306 305 303 302 302 301 301 303 304 305
238 240 242 244 245 246 247 248 249 250 251 252 254 255 257 260 262 264 266 269 272 274 276 279 282 286 291 293 297 302 307 311 313 315 318 319 319 321 322 323 324 324 327 328 325 323 322 321 319 319 317 316 317 319 319 317 317 317 319 318 317 317 317 319 319 318 317 315 315 311 312 317 311 306 305 306 307 306 307 307 304 303 302 302 305 306 307 308
239 241 243 245 247 248 249 250 251 252 252 253 255 256 258 260 262 263 265 267 270 272 275 277 279 283 286 289 292 296 301 304 307 310 313 314 315 317 318 319 319 319 321 323 321 318 318 317 317 316 315 315 315 316 315 314 315 316 317 316 315 316 316 317 317 316 315 314 314 310 311 314 309 304 305 305 305 304 305 305 304 304 304 307 309 310 309 310
241 242 243 245 247 249 250 251 252 254 255 255 257 258 258 261 263 264 265 267 269 271 273 275 277 280 282 285 289 292 295 299 301 305 308 309 311 313 315 317 317 316 317 318 316 314 314 314 314 314 314 314 312 311 311 312 314 314 315 316 316 316 316 316 316 315 315 315 316 312 310 312 308 305 306 304 303 302 302 303 304 306 308 309 310 309 309 311
243 243 244 246 247 249 251 252 253 254 256 256 258 260 259 260 263 264 265 267 269 270 272 275 276 278 280 282 285 288 292 295 296 300 303 305 307 310 312 314 314 314 314 314 312 312 312 312 313 313 312 311 309 309 309 310 311 312 313 315 316 318 318 317 316 316 317 317 319 315 312 314 312 310 310 308 306 305 304 305 306 308 310 310 309 308 310 312
246 246 246 248 249 250 252 254 255 256 257 258 259 260 261 261 262 264 266 268 269 270 272 274 276 278 279 281 283 286 289 291 292 295 299 301 304 307 310 312 312 312 311 311 310 310 311 311 312 311 310 308 307 307 307 308 309 309 311 313 315 318 319 318 318 318 318 318 320 316 314 316 315 314 313 311 310 308 307 306 307 309 311 311 310 311 312 314
249 249 248 250 252 253 255 256 258 258 259 260 260 261 262 263 264 265 267 269 270 272 273 274 276 278 279 281 283 285 287 288 289 292 295 298 302 304 307 309 310 310 309 308 307 308 309 309 310 309 308 307 306 306 306 306 307 307 309 312 316 317 320 320 319 319 318 318 320 316 313 315 315 313 312 311 310 309 308 308 309 311 312 312 312 313 314 314
250 250 250 251 253 255 257 258 260 260 260 261 262 263 264 265 266 266 267 270 271 272 274 275 276 277 279 281 282 284 285 286 288 290 293 296 299 302 305 306 307 307 307 305 304 306 308 307 308 308 306 306 306 305 304 305 305 306 308 312 316 317 320 321 318 318 317 317 318 315 311 313 313 311 311 310 310 310 310 310 311 312 313 313 314 314 314 314
251 251 251 252 253 254 257 259 261 261 261 262 263 264 265 266 267 267 267 270 273 274 277 279 279 279 281 282 283 285 286 287 289 290 291 294 297 300 302 303 304 304 304 304 304 305 307 306 306 307 306 306 305 304 304 304 305 307 308 311 314 316 318 319 318 317 316 316 316 313 311 312 314 313 312 312 313 313 312 312 313 315 315 316 316 316 316 315
254 253 253 253 254 254 255 258 260 262 262 263 264 265 266 267 267 267 266 266 269 273 276 278 280 281 282 284 285 286 288 288 288 289 290 292 294 297 298 300 302 301 301 303 303 304 304 303 304 306 306 306 306 304 304 304 306 307 308 310 313 314 315 317 317 315 315 314 313 312 310 312 314 315 315 315 316 316 315 314 315 317 316 316 315 316 316 314
257 256 256 256 256 256 256 257 259 262 263 264 265 266 267 267 267 268 268 265 264 268 273 275 277 279 282 284 284 286 286 285 285 286 288 289 291 294 296 298 300 300 299 300 301 302 302 301 302 304 305 306 306 305 305 305 306 307 308 309 310 312 313 315 316 315 315 314 313 312 309 309 311 313 317 317 316 316 314 313 314 314 312 311 312 313 312 310
259 260 259 258 259 259 259 259 260 262 264 265 266 267 267 268 268 268 269 268 264 264 269 273 275 278 281 282 284 285 284 283 284 284 285 288 290 293 295 298 299 298 298 299 300 300 299 299 301 303 304 305 306 306 305 304 305 307 307 307 308 310 311 313 314 314 314 313 314 313 309 306 306 310 316 316 314 314 311 309 310 309 309 309 310 310 309 310
259 261 261 261 261 261 261 261 262 264 265 266 267 268 269 269 270 270 271 270 267 265 267 270 273 276 279 281 283 283 283 283 284 284 286 288 290 293 295 297 298 298 297 298 298 299 297 296 299 301 302 305 305 305 304 304 305 306 306 306 307 309 309 310 311 311 312 311 313 316 312 306 306 311 316 316 315 313 309 309 310 309 309 310 311 310 309 311
256 258 260 261 262 263 264 264 264 265 265 267 268 269 270 270 271 271 272 272 269 266 267 269 273 276 277 280 281 282 282 283 284 285 286 288 291 293 294 296 298 297 297 296 296 298 296 294 296 298 300 303 303 303 304 304 305 306 307 306 307 307 307 308 308 308 310 309 312 319 313 306 308 313 317 319 317 313 311 312 311 309 310 311 310 310 310 312
256 257 258 260 261 263 264 265 265 266 266 267 268 269 270 271 272 272 273 274 271 267 267 270 274 277 278 280 281 281 282 283 284 285 286 289 291 292 294 297 298 297 296 295 295 297 295 293 295 296 299 301 301 302 303 304 304 306 307 306 306 306 306 306 305 306 308 307 312 321 313 306 309 313 318 321 317 313 314 315 313 312 312 311 310 310 311 312
257 258 258 259 259 261 263 264 265 266 267 268 269 270 271 271 273 273 273 274 272 269 269 272 274 276 279 281 281 281 282 283 284 285 287 288 289 291 294 296 296 295 294 294 295 296 294 293 294 295 298 300 301 302 302 303 304 305 307 306 306 306 305 305 304 305 307 306 311 319 312 306 307 312 320 321 315 313 315 316 316 315 313 311 311 312 312 314
258 259 260 260 260 261 262 263 264 265 267 268 269 270 271 272 272 273 273 272 272 272 273 274 275 277 279 279 280 281 282 283 284 285 286 287 288 291 293 295 295 294 293 293 294 294 292 292 293 294 297 299 300 301 302 303 304 305 306 306 306 305 306 306 304 306 306 305 310 313 310 307 306 312 321 318 313 314 315 316 317 316 313 313 315 315 315 316
258 259 260 261 261 262 262 263 264 265 266 267 268 269 270 271 271 271 271 270 273 276 277 277 277 277 278 279 280 281 282 283 284 285 286 287 289 291 293 294 293 292 292 292 293 293 291 291 292 293 296 297 299 300 301 302 303 305 306 306 306 306 306 305 305 306 305 304 309 309 307 307 306 313 320 314 312 314 314 316 317 315 313 315 317 316 316 319
258 259 260 261 262 262 263 264 265 266 267 268 269 269 270 270 270 269 269 271 275 276 277 278 278 278 279 279 280 281 282 283 284 285 286 287 289 291 292 293 292 291 290 291 291 291 290 290 290 292 294 296 297 299 300 301 303 305 307 307 306 306 306 305 304 305 304 305 308 307 306 306 306 313 316 312 312 313 314 318 317 314 314 316 317 316 318 320
258 259 260 261 262 263 264 265 266 267 268 268 269 269 270 270 268 267 270 274 276 276 278 280 279 280 280 279 280 281 282 283 284 284 285 286 288 290 291 292 291 290 290 291 290 288 288 287 288 290 293 295 296 298 299 301 303 305 307 307 306 307 306 305 305 305 304 306 308 307 307 306 307 311 312 311 313 313 315 318 315 313 315 316 316 317 319 320
259 260 261 261 262 264 265 266 267 267 268 269 269 269 270 269 267 268 271 274 276 278 280 281 280 281 280 280 281 282 282 283 283 284 285 287 288 289 291 290 289 290 290 291 290 289 288 286 286 289 291 292 294 296 298 300 302 304 305 305 305 306 306 306 307 307 307 308 308 307 307 306 307 310 310 311 313 313 315 315 312 314 316 316 317 318 320 320
260 260 261 262 263 264 265 266 267 268 268 269 269 270 269 267 268 270 273 274 276 278 279 280 280 280 279 280 281 282 283 284 284 285 286 287 288 289 289 289 289 289 289 290 291 291 290 288 289 290 290 292 293 295 297 299 300 302 303 303 304 306 307 307 308 308 308 308 307 307 307 307 308 308 309 312 314 315 314 312 313 317 317 316 318 319 320 320
262 262 262 263 263 264 265 266 266 267 268 268 269 268 266 266 269 272 274 276 276 277 278 279 279 279 280 281 282 282 283 284 286 287 287 288 289 289 289 289 289 289 289 290 290 290 290 290 291 291 292 292 293 295 297 298 301 302 303 304 306 308 307 307 308 308 308 308 307 308 307 307 308 308 309 313 316 316 313 312 315 318 317 317 319 320 319 319
262 263 263 263 264 264 265 265 266 266 267 268 267 266 266 268 271 273 274 275 276 277 278 278 278 279 280 281 281 282 283 285 286 287 288 289 289 288 289 290 290 289 290 290 289 289 288 289 290 292 293 293 294 295 296 299 301 302 303 305 307 307 307 307 308 308 308 307 307 308 307 307 309 309 311 315 318 316 312 313 317 317 316 318 319 319 319 318
262 263 263 263 263 263 263 264 265 266 267 267 267 266 267 269 270 272 274 276 277 278 277 277 277 278 279 281 282 283 284 285 286 287 288 288 288 288 290 291 290 290 290 289 288 288 287 288 290 291 293 294 294 294 296 299 300 300 303 306 306 306 307 307 306 307 307 305 306 307 306 308 310 309 312 317 317 315 313 316 318 316 316 317 317 318 317 316
260 261 262 263 262 261 262 263 263 264 265 266 266 267 268 269 271 272 275 276 277 276 275 275 276 278 279 280 281 283 284 285 286 287 287 287 288 289 291 291 291 291 290 289 288 288 288 288 288 289 291 292 292 293 297 299 298 299 303 305 305 306 306 305 305 306 306 305 307 306 305 309 311 308 313 318 316 314 315 317 317 315 315 315 315 316 315 314
258 259 260 261 262 262 261 262 262 263 263 264 266 267 269 270 272 273 275 275 275 275 275 275 276 277 278 279 281 282 283 284 285 286 286 287 288 289 291 292 292 291 290 289 289 289 288 288 288 289 289 290 291 294 296 296 297 300 303 303 304 304 304 304 304 305 305 305 306 305 305 309 309 308 314 316 313 314 316 316 314 312 312 313 314 313 313 313
257 258 258 259 261 261 261 261 262 262 263 264 266 267 268 270 271 272 273 273 273 274 275 276 276 277 278 279 280 281 282 283 284 284 285 285 286 289 290 291 290 290 289 289 289 289 289 288 288 288 288 290 292 293 294 295 297 300 302 302 303 302 302 303 303 304 304 303 304 305 305 308 309 310 314 314 311 313 315 313 311 309 310 312 312 311 311 311
258 258 259 259 260 261 261 261 262 263 264 265 265 266 268 269 270 271 271 271 272 273 274 275 276 277 278 278 279 280 281 282 282 282 283 284 286 288 289 289 288 288 289 289 289 288 288 287 287 287 288 290 291 292 293 294 297 299 300 300 301 301 302 302 302 303 303 302 303 303 304 307 310 311 313 312 310 312 313 310 308 308 310 311 310 310 310 309
258 259 260 260 260 261 261 261 262 263 263 265 266 267 269 270 271 271 272 271 271 272 273 273 275 276 277 278 279 280 280 280 280 281 282 284 286 287 287 287 287 287 288 288 287 287 287 286 285 286 288 289 289 291 292 294 297 298 298 299 300 301 302 302 302 302 301 301 302 302 302 306 310 311 310 309 309 311 310 307 306 307 309 309 308 308 307 307
258 259 259 260 260 260 260 260 262 262 264 267 268 268 269 270 270 271 272 272 272 272 272 273 274 275 276 277 278 278 278 278 279 281 283 285 285 285 285 285 286 287 287 286 285 285 285 285 285 286 287 287 289 291 292 294 296 296 296 298 299 301 301 300 300 300 300 302 303 301 300 304 309 308 306 306 308 309 307 305 305 306 307 307 307 305 305 306
258 258 258 258 259 259 260 261 262 263 265 267 267 267 268 268 269 271 271 272 272 272 272 272 273 274 275 276 276 276 277 278 280 281 283 284 283 283 284 285 286 285 285 284 284 284 284 285 285 286 286 288 289 291 293 294 295 294 295 297 299 299 299 299 300 299 300 305 305 299 298 303 307 304 303 305 306 307 305 304 304 305 306 306 304 303 305 305
257 258 258 259 259 260 261 262 263 263 265 265 266 266 267 267 269 271 271 272 271 271 271 271 272 273 274 274 274 275 276 278 280 281 281 282 282 282 283 284 284 283 283 283 283 282 283 283 284 285 287 288 290 291 292 293 293 293 296 297 298 298 298 298 298 298 303 308 303 298 299 302 302 300 301 304 305 306 304 301 302 305 305 303 301 303 305 305
258 258 258 259 260 260 262 263 263 264 265 265 265 266 267 269 270 271 270 270 270 270 270 271 272 272 272 273 274 276 277 279 280 280 280 280 281 281 281 281 282 282 282 282 282 282 282 283 284 286 286 287 289 290 290 290 291 293 295 296 296 297 296 296 296 300 306 305 299 300 301 299 300 301 301 303 306 304 300 299 303 305 302 300 303 305 306 305
259 258 259 261 263 263 263 263 264 264 264 265 266 267 268 269 269 269 268 269 270 270 271 271 272 272 274 276 276 277 278 279 279 279 279 279 280 280 280 280 280 280 281 281 281 282 282 283 285 286 286 287 289 289 289 289 291 292 293 294 295 295 294 294 297 302 305 297 295 302 301 296 300 302 301 305 305 299 297 301 304 302 299 302 305 306 306 305
263 261 261 264 265 265 265 266 266 265 265 265 265 265 265 266 267 269 270 270 270 270 271 272 274 276 277 277 277 277 278 278 278 278 278 279 279 279 278 278 278 278 279 279 280 281 282 283 285 286 285 287 289 289 289 290 291 291 292 293 293 293 294 297 299 302 298 291 295 302 297 294 300 304 303 304 299 295 299 303 301 299 301 304 306 306 306 305
265 265 264 265 266 267 268 270 269 266 264 265 264 264 264 266 268 269 270 270 270 271 273 274 276 278 278 277 277 277 278 278 278 278 279 278 277 277 277 277 277 278 278 278 280 281 281 284 286 285 285 287 288 288 289 289 290 291 292 292 293 295 298 299 298 297 293 290 295 299 293 295 304 307 302 298 295 297 301 300 298 301 303 305 307 306 305 304
266 267 266 266 266 267 268 268 267 266 265 265 264 265 265 266 267 269 270 271 272 273 274 275 276 277 277 277 277 276 278 279 279 278 278 277 276 276 276 277 277 277 277 278 280 281 282 285 286 286 285 287 289 288 288 289 290 291 290 293 297 299 298 296 294 294 293 293 296 294 293 299 307 304 297 296 298 298 297 297 300 304 305 307 307 306 305 305
263 264 264 264 264 264 265 265 266 266 266 265 266 267 267 267 268 271 272 272 272 273 273 274 275 275 275 276 275 276 279 279 278 277 276 276 276 276 276 276 276 276 278 280 281 282 283 285 287 287 286 288 290 288 287 289 289 288 290 296 300 298 294 294 294 295 294 293 293 292 295 302 305 299 297 298 297 294 295 300 304 305 306 307 306 305 305 305
260 261 262 264 265 264 265 266 266 265 264 265 267 268 268 268 269 270 270 271 271 273 273 274 275 275 274 274 274 277 279 278 277 276 275 275 276 276 275 276 276 278 280 280 281 282 283 286 288 287 287 289 291 288 287 287 286 288 295 299 296 294 294 295 294 294 295 293 292 294 298 303 303 300 299 297 292 293 298 302 304 306 307 306 305 305 305 305
Height
5909 5909 5909 5910 5910 5910 5910 5910 5910 5910 5910 5909 5909 5908 5908 5908 5907 5907 5906 5905 5905 5903 5902 5901 5900 5899 5897 5896 5895 5894 5893 5892 5891 5890 5889 5887 5886 5885 5884 5883 5882 5881 5880 5878 5877 5876 5875 5873 5872 5870 5869 5868 5867 5866 5865 5864 5863 5863 5861 5860 5858 5857 5856 5855 5854 5852 5851 5850 5850 5850 5850 5847 5847 5848 5847 5846 5845 5843 5841 5840 5839 5838 5837 5835 5834 5833 5832 5830
5907 5907 5908 5908 5908 5909 5909 5909 5909 5909 5908 5908 5908 5907 5907 5907 5906 5905 5905 5904 5904 5902 5901 5900 5899 5898 5896 5895 5894 5893 5892 5891 5890 5889 5888 5887 5886 5885 5883 5882 5881 5880 5879 5877 5876 5875 5873 5872 5870 5869 5867 5866 5865 5864 5864 5862 5861 5860 5859 5858 5857 5855 5855 5854 5852 5851 5849 5848 5847 5848 5847 5845 5844 5844 5844 5843 5842 5840 5838 5837 5836 5835 5834 5832 5831 5830 5828 5827
5906 5906 5906 5906 5907 5907 5907 5907 5907 5907 5907 5907 5906 5906 5905 5905 5905 5904 5904 5903 5902 5901 5900 5898 5897 5896 5895 5894 5893 5892 5891 5890 5889 5888 5887 5886 5885 5884 5883 5881 5880 5879 5877 5876 5874 5873 5872 5871 5870 5868 5866 5865 5863 5863 5862 5860 5859 5858 5857 5856 5855 5853 5853 5852 5850 5849 5847 5845 5845 5845 5845 5843 5841 5840 5840 5839 5838 5837 5835 5834 5833 5832 5830 5829 5828 5826 5825 5824
5904 5904 5904 5904 5905 5905 5905 5905 5905 5905 5905 5905 5905 5904 5904 5904 5903 5903 5902 5901 5901 5900 5898 5897 5896 5895 5894 5893 5892 5890 5889 5888 5888 5887 5886 5885 5884 5883 5882 5880 5879 5877 5876 5875 5873 5872 5870 5869 5868 5867 5866 5864 5862 5861 5860 5859 5857 5856 5854 5854 5852 5851 5850 5849 5848 5846 5844 5843 5842 5842 5842 5841 5838 5836 5836 5836 5835 5833 5832 5831 5830 5829 5827 5826 5825 5823 5822 5821
5901 5902 5902 5902 5902 5903 5903 5903 5903 5903 5903 5903 5903 5902 5902 5902 5902 5901 5901 5900 5899 5898 5897 5895 5894 5893 5892 5891 5890 5889 5888 5887 5886 5885 5885 5884 5883 5882 5880 5879 5878 5876 5875 5874 5872 5871 5869 5867 5866 5865 5864 5863 5861 5860 5858 5857 5856 5854 5853 5851 5850 5848 5847 5846 5845 5844 5842 5841 5840 5839 5839 5838 5836 5833 5833 5833 5832 5831 5829 5828 5827 5825 5824 5823 5822 5820 5819 5818
5899 5899 5900 5900 5900 5901 5901 5901 5901 5901 5901 5901 5901 5901 5900 5900 5900 5899 5899 5898 5897 5896 5895 5894 5893 5891 5890 5890 5889 5888 5887 5886 5885 5884 5883 5882 5881 5880 5879 5878 5876 5875 5874 5872 5871 5869 5867 5866 5864 5863 5862 5861 5860 5859 5858 5856 5855 5853 5851 5849 5848 5846 5845 5844 5843 5841 5839 5838 5837 5836 5836 5835 5833 5832 5831 5831 5830 5828 5827 5825 5824 5822 5821 5820 5819 5817 5816 5815
5897 5897 5897 5898 5898 5898 5899 5899 5899 5899 5899 5899 5899 5899 5899 5898 5898 5897 5897 5896 5896 5895 5893 5892 5891 5890 5889 5888 5887 5886 5885 5884 5883 5883 5882 5881 5880 5879 5878 5876 5875 5874 5872 5871 5869 5867 5866 5864 5863 5862 5861 5860 5859 5858 5857 5856 5854 5852 5850 5848 5846 5844 5843 5841 5840 5838 5836 5835 5834 5833 5833 5832 5831 5830 5830 5829 5827 5826 5825 5823 5822 5820 5819 5817 5816 5814 5813 5812
5895 5895 5895 5896 5896 5896 5897 5897 5897 5897 5897 5897 5897 5897 5897 5896 5896 5895 5895 5894 5894 5893 5892 5891 5890 5889 5887 5886 5885 5884 5884 5883 5882 5881 5880 5879 5878 5877 5876 5875 5874 5872 5871 5869 5868 5866 5865 5863 5862 5860 5859 5858 5857 5856 5855 5854 5853 5851 5849 5847 5845 5843 5841 5839 5838 5836 5834 5832 5831 5830 5830 5830 5829 5828 5828 5827 5825 5824 5822 5821 5819 5818 5816 5815 5813 5811 5810 5808
5893 5893 5893 5893 5894 5894 5894 5895 5895 5895 5895 5895 5895 5895 5895 5894 5894 5894 5893 5892 5892 5891 5890 5889 5888 5887 5886 5885 5883 5883 5882 5881 5880 5879 5878 5878 5877 5876 5874 5873 5872 5870 5869 5868 5866 5865 5864 5863 5861 5859 5858 5856 5855 5854 5853 5852 5851 5849 5848 5846 5844 5841 5839 5837 5835 5834 5832 5830 5828 5827 5827 5827 5826 5825 5825 5824 5822 5821 5820 5818 5816 5815 5813 5811 5810 5808 5805 5803
5890 5890 5891 5891 5891 5891 5892 5892 5892 5893 5893 5893 5893 5892 5892 5892 5892 5891 5891 5890 5889 5889 5888 5888 5886 5886 5885 5883 5882 5881 5880 5880 5879 5878 5877 5876 5875 5874 5873 5871 5870 5868 5867 5866 5865 5864 5862 5861 5859 5858 5856 5855 5853 5852 5851 5850 5849 5847 5846 5845 5843 5841 5838 5836 5834 5831 5829 5827 5825 5824 5824 5824 5823 5822 5820 5820 5819 5818 5817 5815 5813 5811 5809 5808 5806 5803 5801 5799
5888 5888 5888 5888 5888 5889 5889 5889 5890 5890 5890 5890 5890 5890 5890 5890 5889 5889 5889 5888 5887 5887 5886 5885 5885 5884 5883 5882 5881 5880 5879 5878 5877 5876 5875 5874 5873 5872 5871 5870 5868 5867 5865 5864 5863 5862 5861 5859 5858 5857 5855 5853 5852 5850 5848 5847 5846 5845 5844 5843 5841 5839 5837 5835 5832 5830 5827 5825 5823 5821 5821 5821 5819 5818 5816 5815 5815 5815 5813 5812 5810 5808 5806 5804 5802 5799 5797 5795
5885 5885 5885 5886 5886 5886 5886 5887 5887 5887 5887 5887 5887 5887 5887 5887 5887 5886 5886 5885 5885 5884 5884 5883 5882 5882 5881 5880 5879 5878 5877 5876 5875 5874 5873 5872 5871 5870 5869 5868 5867 5865 5863 5862 5861 5860 5859 5858 5856 5855 5853 5851 5850 5848 5846 5845 5844 5843 5842 5841 5839 5837 5835 5832 5830 5828 5825 5822 5820 5818 5818 5819 5816 5814 5812 5811 5811 5810 5809 5807 5805 5803 5802 5800 5798 5796 5793 5791
5881 5882 5883 5883 5883 5884 5884 5884 5884 5884 5884 5884 5884 5884 5884 5884 5883 5883 5883 5883 5882 5882 5881 5881 5880 5879 5878 5878 5877 5876 5875 5874 5873 5872 5871 5870 5869 5868 5867 5866 5864 5863 5861 5860 5859 5857 5856 5855 5854 5853 5851 5849 5847 5846 5844 5843 5842 5841 5839 5838 5837 5836 5833 5831 5828 5826 5823 5820 5818 5814 5814 5816 5813 5810 5808 5806 5806 5805 5803 5802 5800 5799 5797 5796 5794 5792 5789 5787
5878 5878 5879 5880 5880 5881 5881 5881 5881 5881 5881 5881 5881 5881 5881 5880 5880 5880 5880 5880 5879 5879 5879 5878 5878 5877 5876 5875 5874 5873 5873 5872 5871 5870 5869 5868 5867 5866 5865 5864 5862 5861 5860 5858 5857 5855 5854 5853 5851 5850 5849 5847 5845 5844 5842 5841 5839 5838 5837 5835 5834 5833 5831 5829 5826 5824 5821 5818 5816 5811 5810 5812 5809 5805 5804 5803 5803 5801 5799 5798 5796 5795 5793 5791 5790 5787 5785 5782
5874 5875 5876 5876 5877 5877 5878 5878 5878 5878 5878 5878 5878 5878 5878 5877 5877 5877 5877 5877 5876 5876 5876 5875 5875 5875 5874 5873 5872 5871 5870 5869 5868 5867 5866 5865 5864 5863 5863 5862 5860 5859 5858 5857 5855 5853 5851 5850 5849 5848 5846 5845 5843 5842 5840 5839 5837 5835 5834 5833 5830 5829 5827 5825 5823 5821 5819 5817 5815 5810 5808 5809 5806 5803 5801 5800 5800 5798 5796 5794 5792 5790 5789 5787 5785 5782 5780 5777
5870 5871 5872 5872 5873 5874 5874 5875 5875 5875 5875 5875 5875 5875 5875 5874 5873 5873 5873 5873 5873 5873 5873 5872 5872 5872 5872 5871 5870 5869 5868 5867 5866 5865 5864 5862 5862 5861 5860 5859 5858 5856 5855 5854 5853 5851 5849 5847 5846 5845 5843 5842 5840 5839 5838 5836 5835 5832 5831 5829 5827 5825 5823 5821 5818 5816 5815 5814 5812 5808 5805 5805 5803 5800 5799 5798 5797 5795 5793 5791 5788 5786 5785 5783 5780 5778 5775 5773
5867 5867 5868 5868 5869 5870 5870 5871 5871 5872 5872 5872 5872 5871 5871 5871 5870 5870 5869 5869 5869 5869 5869 5869 5869 5869 5870 5869 5868 5866 5865 5864 5863 5862 5861 5860 5859 5858 5857 5856 5855 5853 5852 5852 5850 5849 5847 5845 5843 5841 5840 5838 5837 5836 5834 5833 5832 5830 5828 5826 5824 5822 5819 5817 5814 5811 5809 5808 5807 5803 5800 5800 5798 5796 5795 5793 5792 5790 5787 5785 5783 5782 5780 5778 5776 5773 5771 5769
5863 5864 5864 5865 5865 5866 5866 5867 5867 5868 5868 5868 5868 5868 5867 5867 5867 5866 5866 5866 5866 5865 5866 5866 5865 5866 5866 5866 5865 5864 5863 5862 5861 5859 5858 5857 5856 5855 5854 5853 5851 5850 5849 5848 5847 5846 5844 5842 5840 5838 5836 5835 5834 5832 5830 5829 5828 5826 5825 5823 5821 5819 5816 5813 5809 5807 5804 5802 5801 5796 5793 5794 5792 5790 5788 5787 5786 5784 5782 5780 5778 5777 5775 5773 5771 5768 5766 5764
5859 5860 5861 5861 5861 5862 5862 5863 5863 5864 5864 5864 5864 5864 5864 5864 5863 5863 5863 5862 5862 5862 5862 5862 5862 5862 5863 5863 5862 5861 5860 5859 5858 5857 5855 5854 5853 5852 5851 5850 5848 5847 5846 5845 5844 5843 5842 5839 5837 5836 5833 5832 5830 5829 5827 5825 5824 5822 5820 5819 5816 5814 5813 5809 5805 5802 5800 5798 5797 5792 5788 5789 5788 5785 5783 5782 5781 5779 5777 5775 5773 5772 5769 5767 5765 5763 5760 5758
5855 5856 5857 5857 5858 5858 5859 5859 5859 5860 5860 5861 5860 5860 5860 5860 5859 5859 5859 5859 5858 5858 5858 5858 5858 5858 5859 5859 5858 5858 5857 5856 5855 5854 5852 5851 5850 5848 5848 5846 5845 5844 5843 5842 5840 5840 5838 5836 5834 5833 5831 5829 5827 5825 5823 5822 5820 5818 5816 5814 5812 5808 5807 5805 5801 5798 5796 5794 5793 5789 5785 5786 5785 5782 5780 5778 5776 5774 5772 5769 5767 5766 5763 5761 5759 5757 5754 5752
5851 5852 5852 5853 5853 5854 5854 5855 5855 5855 5856 5857 5856 5856 5856 5856 5855 5855 5856 5856 5855 5854 5854 5854 5854 5854 5854 5854 5854 5854 5853 5852 5851 5850 5849 5847 5846 5845 5844 5843 5842 5841 5839 5838 5837 5836 5834 5832 5831 5829 5827 5825 5823 5821 5819 5818 5816 5814 5811 5810 5808 5804 5802 5801 5797 5793 5791 5789 5788 5785 5780 5781 5781 5778 5775 5772 5770 5769 5766 5763 5762 5760 5757 5755 5753 5751 5749 5746
5847 5847 5848 5848 5849 5849 5850 5850 5850 5851 5851 5852 5852 5852 5851 5851 5851 5850 5851 5853 5853 5851 5851 5851 5850 5850 5851 5850 5850 5849 5849 5848 5847 5846 5845 5844 5843 5842 5841 5840 5839 5837 5836 5835 5833 5832 5831 5828 5826 5825 5823 5821 5819 5817 5814 5813 5812 5810 5807 5805 5804 5801 5797 5797 5793 5789 5787 5784 5782 5780 5775 5774 5775 5773 5771 5767 5765 5763 5760 5758 5757 5754 5752 5750 5748 5746 5743 5740
5843 5843 5844 5844 5844 5845 5845 5846 5846 5846 5846 5847 5847 5847 5847 5846 5846 5846 5846 5847 5849 5849 5848 5847 5847 5847 5847 5846 5845 5845 5844 5844 5843 5842 5842 5841 5840 5838 5837 5836 5835 5833 5832 5831 5829 5829 5827 5824 5822 5821 5819 5817 5815 5812 5810 5808 5807 5806 5803 5800 5799 5797 5793 5790 5788 5784 5782 5779 5777 5775 5770 5767 5768 5769 5767 5764 5760 5758 5755 5753 5752 5750 5748 5745 5743 5741 5738 5733
5839 5840 5840 5840 5840 5840 5841 5841 5841 5841 5842 5842 5842 5842 5841 5841 5840 5841 5840 5840 5843 5846 5845 5843 5843 5843 5843 5842 5841 5841 5840 5840 5839 5839 5837 5837 5836 5834 5833 5832 5830 5829 5828 5827 5825 5825 5823 5819 5817 5817 5815 5813 5811 5808 5805 5803 5803 5802 5799 5796 5794 5793 5789 5785 5782 5778 5776 5774 5772 5770 5764 5760 5762 5765 5766 5762 5758 5755 5752 5749 5748 5745 5742 5740 5737 5735 5731 5727
5835 5835 5836 5836 5836 5836 5836 5836 5837 5837 5837 5837 5838 5837 5836 5836 5835 5835 5835 5833 5836 5841 5841 5839 5839 5840 5839 5838 5838 5836 5835 5835 5835 5834 5833 5832 5831 5830 5829 5827 5826 5824 5823 5822 5821 5821 5819 5816 5813 5812 5810 5809 5807 5804 5801 5798 5797 5797 5795 5792 5789 5788 5785 5782 5779 5774 5771 5769 5768 5767 5760 5751 5753 5760 5761 5758 5755 5751 5747 5745 5742 5739 5736 5733 5731 5728 5724 5720
5830 5830 5831 5832 5832 5831 5831 5832 5832 5832 5832 5832 5832 5832 5831 5831 5830 5829 5829 5825 5827 5835 5836 5834 5835 5836 5835 5835 5834 5832 5831 5831 5831 5830 5829 5828 5827 5825 5824 5823 5821 5819 5818 5816 5816 5816 5815 5811 5810 5808 5806 5805 5802 5800 5797 5794 5792 5791 5791 5788 5785 5783 5780 5778 5775 5770 5766 5762 5763 5765 5756 5744 5744 5752 5755 5752 5749 5745 5741 5739 5736 5732 5729 5727 5724 5721 5717 5714
5825 5825 5825 5826 5827 5826 5826 5827 5827 5827 5827 5827 5827 5827 5826 5825 5824 5824 5824 5818 5818 5827 5831 5830 5832 5831 5831 5831 5829 5828 5827 5827 5826 5825 5824 5823 5822 5820 5819 5818 5817 5814 5813 5811 5810 5812 5809 5806 5805 5803 5801 5800 5797 5795 5792 5790 5787 5786 5785 5782 5780 5778 5775 5773 5770 5766 5762 5757 5758 5761 5752 5740 5737 5744 5749 5747 5742 5739 5736 5734 5730 5726 5723 5720 5717 5714 5711 5708
5820 5819 5820 5821 5822 5821 5821 5821 5821 5822 5821 5821 5822 5821 5820 5820 5819 5819 5818 5811 5809 5819 5825 5826 5827 5827 5826 5825 5824 5823 5822 5822 5822 5820 5820 5818 5817 5816 5814 5814 5812 5809 5808 5806 5805 5806 5803 5801 5800 5798 5797 5795 5792 5790 5787 5785 5782 5781 5780 5777 5775 5772 5770 5768 5764 5762 5757 5750 5753 5756 5747 5737 5733 5737 5744 5741 5736 5733 5731 5728 5723 5720 5717 5713 5711 5708 5704 5700
5814 5814 5814 5815 5816 5816 5815 5815 5816 5816 5816 5816 5816 5816 5815 5815 5814 5813 5810 5804 5804 5813 5819 5821 5822 5822 5821 5820 5818 5818 5817 5817 5816 5815 5814 5813 5811 5811 5810 5809 5807 5805 5803 5801 5800 5800 5797 5796 5795 5792 5792 5790 5787 5784 5782 5780 5777 5776 5774 5771 5769 5766 5764 5762 5758 5756 5752 5745 5747 5748 5742 5733 5728 5732 5739 5734 5730 5728 5725 5721 5717 5714 5710 5706 5704 5700 5696 5693
5808 5808 5809 5809 5811 5811 5810 5810 5810 5810 5811 5811 5810 5810 5809 5808 5808 5806 5801 5799 5803 5807 5810 5814 5816 5815 5814 5813 5812 5812 5811 5811 5811 5810 5809 5807 5806 5806 5805 5804 5802 5799 5798 5797 5796 5795 5792 5791 5789 5787 5786 5784 5781 5779 5776 5774 5772 5770 5768 5765 5763 5759 5758 5756 5753 5751 5746 5741 5743 5740 5736 5729 5722 5726 5732 5727 5724 5722 5718 5714 5710 5706 5702 5699 5696 5693 5689 5686
5802 5802 5803 5803 5804 5805 5804 5804 5804 5805 5805 5805 5804 5804 5803 5801 5800 5796 5793 5798 5802 5801 5803 5807 5807 5808 5808 5807 5806 5806 5806 5805 5805 5804 5803 5801 5800 5800 5799 5798 5795 5794 5793 5792 5791 5789 5787 5785 5784 5783 5781 5779 5776 5773 5771 5768 5765 5764 5762 5759 5756 5753 5751 5749 5747 5745 5739 5736 5737 5732 5728 5724 5715 5718 5722 5718 5717 5715 5710 5707 5702 5697 5694 5691 5688 5685 5681 5679
5796 5796 5797 5798 5798 5798 5798 5798 5798 5799 5798 5798 5798 5797 5796 5793 5788 5787 5791 5797 5797 5794 5797 5800 5799 5800 5800 5799 5799 5800 5800 5799 5799 5798 5797 5796 5795 5794 5793 5792 5790 5787 5786 5787 5786 5784 5782 5781 5779 5777 5776 5773 5770 5768 5765 5762 5760 5758 5756 5753 5749 5746 5744 5742 5740 5738 5733 5731 5729 5723 5720 5716 5710 5711 5712 5709 5709 5707 5702 5699 5693 5688 5686 5684 5680 5677 5674 5671
5790 5790 5790 5791 5792 5792 5792 5792 5792 5792 5792 5792 5790 5790 5789 5782 5777 5783 5791 5794 5792 5790 5791 5791 5791 5792 5791 5790 5792 5792 5792 5792 5792 5791 5791 5790 5788 5788 5787 5787 5785 5782 5780 5779 5778 5777 5776 5775 5775 5773 5771 5769 5766 5763 5759 5757 5755 5753 5751 5748 5745 5741 5737 5734 5733 5729 5725 5725 5722 5715 5711 5708 5705 5705 5703 5702 5702 5699 5696 5691 5685 5682 5680 5676 5672 5669 5667 5663
5782 5783 5783 5784 5785 5785 5785 5785 5785 5785 5785 5784 5783 5782 5778 5771 5771 5780 5787 5789 5789 5787 5785 5784 5784 5783 5782 5783 5784 5784 5785 5784 5784 5784 5784 5783 5782 5782 5781 5781 5780 5778 5775 5773 5771 5769 5767 5766 5768 5767 5765 5763 5761 5758 5754 5752 5750 5748 5746 5743 5740 5737 5731 5726 5726 5721 5717 5716 5715 5711 5704 5699 5698 5696 5695 5697 5696 5693 5689 5683 5678 5676 5673 5668 5665 5663 5659 5656
5775 5776 5777 5777 5778 5778 5779 5778 5777 5778 5777 5777 5776 5772 5766 5764 5770 5777 5780 5783 5783 5782 5780 5779 5776 5775 5774 5776 5777 5777 5778 5777 5777 5776 5776 5776 5776 5775 5775 5775 5775 5772 5770 5768 5766 5763 5759 5758 5759 5758 5758 5756 5753 5751 5748 5745 5743 5740 5738 5735 5733 5731 5724 5719 5717 5714 5709 5706 5707 5706 5698 5694 5692 5686 5686 5691 5690 5686 5680 5674 5672 5669 5665 5661 5658 5656 5652 5648
5767 5769 5770 5770 5771 5772 5771 5770 5770 5769 5769 5769 5766 5760 5757 5762 5768 5771 5773 5775 5776 5776 5775 5772 5770 5768 5767 5768 5769 5770 5770 5770 5770 5769 5768 5768 5767 5767 5768 5769 5769 5766 5765 5763 5760 5758 5754 5751 5751 5750 5749 5748 5746 5744 5741 5739 5737 5732 5730 5729 5726 5723 5718 5713 5710 5707 5702 5696 5698 5700 5692 5689 5688 5680 5680 5684 5682 5678 5671 5666 5666 5662 5657 5654 5651 5648 5645 5640
5760 5761 5762 5763 5764 5763 5762 5762 5762 5761 5761 5759 5754 5750 5753 5759 5762 5765 5768 5769 5769 5770 5768 5765 5763 5762 5761 5761 5761 5762 5763 5763 5763 5762 5761 5760 5758 5759 5762 5762 5761 5760 5758 5756 5754 5751 5748 5746 5745 5742 5741 5740 5739 5736 5734 5733 5730 5725 5725 5724 5720 5716 5713 5707 5702 5700 5695 5686 5688 5693 5686 5683 5681 5674 5675 5677 5673 5668 5662 5659 5658 5653 5649 5647 5644 5640 5637 5633
5752 5752 5753 5756 5756 5755 5755 5754 5753 5753 5752 5748 5743 5744 5748 5752 5756 5761 5764 5763 5762 5761 5759 5758 5757 5756 5756 5755 5754 5755 5755 5755 5756 5755 5754 5752 5750 5751 5754 5754 5753 5752 5750 5748 5746 5744 5742 5739 5738 5737 5734 5733 5731 5729 5728 5726 5721 5719 5719 5718 5714 5710 5707 5701 5694 5692 5688 5678 5677 5681 5682 5680 5674 5669 5670 5671 5665 5659 5655 5653 5650 5645 5642 5640 5637 5633 5628 5625
5743 5743 5746 5749 5747 5745 5746 5745 5745 5745 5741 5736 5737 5739 5741 5745 5750 5755 5757 5756 5755 5752 5750 5751 5751 5750 5749 5748 5748 5748 5747 5748 5749 5747 5746 5744 5742 5744 5747 5745 5744 5743 5741 5739 5737 5736 5734 5731 5730 5730 5727 5725 5724 5723 5722 5718 5714 5713 5713 5711 5709 5704 5700 5695 5689 5685 5680 5673 5667 5666 5672 5675 5669 5665 5666 5664 5657 5652 5649 5647 5642 5637 5636 5633 5629 5626 5621 5618
5734 5734 5738 5742 5738 5735 5737 5737 5736 5734 5730 5729 5733 5733 5733 5738 5743 5747 5748 5748 5747 5745 5743 5743 5743 5742 5742 5742 5741 5741 5741 5741 5741 5739 5738 5737 5736 5738 5740 5738 5736 5734 5732 5731 5729 5727 5725 5722 5722 5721 5718 5717 5717 5716 5713 5710 5708 5707 5706 5704 5701 5697 5693 5688 5683 5680 5674 5668 5662 5654 5656 5662 5661 5659 5661 5656 5650 5647 5644 5641 5636 5631 5629 5627 5623 5619 5615 5611
5725 5725 5730 5734 5729 5726 5727 5726 5726 5726 5721 5722 5725 5725 5727 5731 5735 5737 5739 5740 5739 5738 5737 5736 5735 5734 5735 5735 5734 5735 5734 5733 5733 5731 5730 5731 5731 5732 5732 5730 5728 5726 5724 5723 5721 5719 5716 5713 5713 5712 5710 5709 5709 5707 5705 5703 5703 5701 5700 5698 5694 5691 5686 5678 5674 5672 5668 5662 5658 5651 5645 5648 5652 5652 5652 5647 5643 5641 5639 5633 5628 5625 5622 5619 5615 5612 5608 5605
5715 5717 5722 5723 5720 5718 5716 5715 5719 5717 5711 5712 5717 5720 5722 5724 5725 5727 5730 5731 5731 5731 5730 5728 5728 5727 5727 5727 5728 5728 5726 5724 5725 5724 5723 5725 5727 5725 5724 5723 5720 5718 5717 5714 5712 5711 5708 5704 5703 5703 5703 5701 5700 5700 5697 5696 5696 5694 5691 5689 5686 5684 5680 5672 5665 5662 5659 5655 5651 5646 5638 5637 5644 5644 5640 5637 5635 5634 5632 5626 5621 5618 5616 5612 5608 5605 5601 5598
5707 5710 5712 5712 5710 5707 5704 5705 5709 5706 5703 5708 5712 5714 5715 5714 5716 5719 5721 5720 5721 5722 5721 5720 5721 5720 5720 5721 5720 5720 5718 5715 5717 5717 5717 5719 5720 5718 5716 5714 5713 5711 5708 5706 5704 5702 5698 5695 5694 5694 5694 5693 5693 5692 5690 5689 5688 5685 5683 5682 5679 5676 5672 5666 5659 5653 5651 5649 5645 5637 5628 5629 5637 5636 5630 5628 5628 5627 5623 5618 5615 5612 5609 5606 5601 5598 5595 5592
5698 5699 5701 5701 5698 5694 5692 5696 5700 5698 5700 5703 5702 5704 5706 5705 5708 5711 5711 5711 5712 5713 5712 5712 5713 5713 5713 5713 5711 5711 5710 5707 5709 5712 5711 5711 5711 5710 5708 5706 5706 5703 5700 5697 5695 5693 5689 5688 5686 5683 5683 5685 5685 5684 5683 5682 5680 5676 5676 5675 5672 5669 5663 5657 5652 5645 5641 5644 5641 5627 5617 5624 5632 5626 5620 5621 5620 5619 5616 5609 5607 5605 5601 5599 5595 5591 5590 5586
5687 5687 5690 5691 5687 5683 5683 5689 5692 5690 5693 5694 5692 5695 5697 5696 5701 5704 5703 5702 5702 5702 5701 5702 5705 5705 5705 5704 5702 5702 5703 5702 5702 5704 5704 5702 5701 5702 5701 5698 5697 5694 5691 5689 5686 5683 5681 5681 5679 5675 5673 5675 5677 5677 5675 5673 5669 5667 5669 5668 5663 5660 5655 5647 5643 5638 5635 5636 5634 5621 5611 5618 5625 5617 5612 5615 5613 5610 5608 5601 5599 5599 5595 5592 5589 5585 5584 5580
5674 5675 5680 5680 5675 5673 5676 5682 5683 5681 5685 5684 5682 5687 5690 5689 5694 5697 5693 5690 5690 5690 5691 5694 5696 5695 5695 5695 5694 5695 5697 5697 5695 5694 5695 5693 5692 5694 5693 5690 5688 5686 5683 5680 5676 5674 5671 5672 5673 5669 5665 5665 5668 5670 5668 5664 5662 5662 5661 5660 5656 5652 5647 5640 5635 5634 5631 5624 5620 5620 5611 5608 5615 5613 5605 5607 5606 5600 5596 5593 5592 5591 5587 5584 5581 5578 5576 5573
5661 5665 5671 5670 5664 5664 5670 5674 5672 5672 5675 5675 5674 5680 5684 5682 5684 5684 5680 5679 5681 5682 5682 5684 5685 5684 5686 5688 5686 5687 5690 5690 5687 5685 5686 5685 5685 5684 5683 5682 5680 5677 5674 5671 5667 5665 5661 5662 5666 5662 5656 5658 5660 5660 5658 5655 5655 5656 5654 5652 5648 5642 5639 5635 5629 5629 5628 5612 5605 5617 5614 5600 5604 5607 5599 5598 5597 5589 5586 5585 5583 5581 5579 5576 5574 5571 5569 5566
5651 5658 5663 5661 5653 5653 5659 5664 5664 5664 5665 5665 5665 5671 5673 5672 5673 5673 5671 5672 5673 5673 5673 5673 5677 5679 5680 5680 5677 5678 5682 5680 5676 5677 5678 5677 5676 5675 5674 5674 5672 5669 5667 5663 5660 5657 5652 5653 5659 5654 5648 5651 5653 5650 5648 5646 5645 5647 5648 5646 5639 5632 5630 5628 5624 5623 5620 5605 5597 5608 5609 5597 5598 5601 5593 5588 5585 5579 5579 5579 5576 5574 5572 5570 5568 5565 5561 5558
5643 5648 5651 5648 5643 5645 5652 5656 5655 5653 5653 5654 5653 5657 5663 5664 5664 5664 5663 5662 5663 5666 5666 5665 5670 5674 5671 5669 5668 5668 5672 5670 5666 5670 5670 5667 5666 5665 5664 5665 5663 5660 5658 5655 5652 5650 5644 5645 5651 5646 5640 5643 5646 5642 5639 5637 5635 5636 5639 5638 5632 5626 5623 5619 5616 5616 5611 5600 5596 5598 5595 5594 5600 5597 5586 5579 5575 5572 5572 5571 5569 5569 5566 5563 5561 5558 5554 5550
5637 5637 5639 5636 5633 5638 5642 5642 5641 5639 5643 5644 5640 5647 5654 5654 5654 5655 5653 5652 5655 5660 5659 5656 5663 5666 5660 5658 5658 5657 5663 5663 5657 5661 5661 5654 5654 5655 5653 5654 5654 5651 5649 5647 5646 5642 5636 5636 5642 5637 5630 5634 5639 5635 5630 5628 5626 5625 5627 5629 5626 5622 5617 5609 5607 5608 5602 5594 5593 5590 5582 5587 5597 5590 5578 5574 5571 5567 5565 5564 5563 5561 5558 5556 5554 5550 5546 5542
5630 5626 5627 5623 5621 5627 5629 5629 5630 5629 5631 5632 5631 5639 5644 5642 5648 5649 5641 5642 5648 5649 5648 5649 5654 5654 5647 5646 5647 5648 5656 5654 5646 5648 5649 5642 5642 5645 5643 5643 5643 5641 5640 5640 5637 5634 5629 5628 5632 5628 5619 5623 5630 5626 5621 5621 5617 5614 5618 5623 5620 5613 5608 5603 5601 5601 5596 5588 5585 5581 5576 5580 5586 5579 5572 5570 5566 5562 5560 5559 5556 5553 5550 5549 5545 5542 5538 5534
5620 5614 5616 5613 5608 5613 5616 5618 5619 5615 5618 5625 5628 5632 5633 5634 5641 5639 5628 5630 5639 5639 5638 5641 5644 5641 5634 5634 5640 5644 5646 5641 5633 5634 5635 5630 5630 5633 5632 5632 5633 5633 5633 5631 5627 5626 5623 5620 5621 5618 5609 5611 5618 5616 5613 5612 5606 5604 5612 5615 5610 5604 5600 5597 5596 5595 5591 5582 5575 5573 5573 5574 5573 5568 5565 5564 5560 5558 5557 5553 5549 5546 5543 5540 5538 5534 5530 5526